カタログに戻る

STARLINK-35702

運用中通信VLEO
NORAD 66876·PAYLOAD·🇺🇸 United States

打ち上げ Dec 2, 2025 から Cape Canaveral Space Force Station

Loading…

次のパス (今後24時間)

TLE

最新Source: CelesTrak SupGP

元期: Sep 15, 2026, 03:11 UTC

1 66876C 25281AE  26258.13312500  .00038639  00000+0  13991-2 0  2580
2 66876  43.0024 353.5564 0001562 260.9323 286.9675 15.27569219    19

AllMySatでSTARLINK-35702をリアルタイム追跡

Download on the App Store